Air Resources Laboratory banner image
Air Resources Laboratory web site National Oceanic and Atmospheric Administration (NOAA)

nj roundup


Office: PHI

ASUS41 KPHI 151012
RWRPHI

REGIONAL WEATHER ROUNDUP
NATIONAL WEATHER SERVICE MOUNT HOLLY NJ
500 AM EST FRI DEC 15 2017

NOTE:  "FAIR" INDICATES FEW OR NO CLOUDS BELOW 12,000 FEET WITH NO
SIGNIFICANT WEATHER AND/OR OBSTRUCTIONS TO VISIBILITY.

 * = STATION DOES NOT REPORT PRECIPITATION (E.G. RAIN, SNOW, ETC.)
        OR FOG.

NJZ015>026-151100-
SOUTHERN NEW JERSEY

CITY           SKY/WX    TMP DP  RH WIND       PRES   REMARKS
POMONA         CLOUDY    23  12  62 CALM      30.13F
WILDWOOD*      CLOUDY    25  12  58 N6        30.14F WCI  18
MILLVILLE      CLOUDY    22  17  81 CALM      30.14R
WRIGHTSTOWN    CLOUDY    19  11  69 CALM      30.09F
MOUNT HOLLY    CLOUDY    19  12  74 CALM      30.13S
TRENTON        CLOUDY    18  10  71 S3        30.11R

$$
NJZ001>014-151100-
NORTHERN NEW JERSEY

CITY           SKY/WX    TMP DP  RH WIND       PRES   REMARKS
SUSSEX         CLOUDY     6   3  87 CALM      30.06F
ANDOVER*         N/A     11   7  84 CALM      30.06F
MORRISTOWN     CLOUDY    10   9  92 CALM      30.10S
NEWARK         MOCLDY    20   7  57 NW7       30.11S WCI  11
TETERBORO      PTCLDY    19   8  62 CALM      30.10S
CALDWELL       CLOUDY    14   7  73 CALM      30.10S
SOMERVILLE     PTCLDY     8   6  92 CALM      30.10S
ALLAIRE*       CLOUDY    19   8  62 W3        30.12S
TOMS RIVER*    CLOUDY    18  12  77 CALM      30.13F

$$
PAZ043-044-047-054-055-060>062-066>071-151100-
EASTERN PENNSYLVANIA

CITY           SKY/WX    TMP DP  RH WIND       PRES   REMARKS
PHILADELPHIA   CLOUDY    25   7  46 CALM      30.13F
NORTH PHILA    CLOUDY    22  10  60 CALM      30.13S
BLUE BELL*     PTCLDY    14  10  85 CALM      30.12F
DOYLESTOWN     CLOUDY    16   7  67 CALM      30.08S
QUAKERTOWN*    CLOUDY     9   7  92 CALM      30.08S
PERKASIE*      FAIR      10   7  85 CALM      30.08S
POTTSTOWN      CLOUDY    14   8  77 CALM      30.11S
LANCASTER      CLEAR     17  11  77 CALM      30.09S
COATESVILLE    CLEAR     19   7  58 VRB5      30.09S WCI  13
READING        CLEAR     15  12  88 CALM      30.09R
ALLENTOWN      CLOUDY    13   4  67 CALM      30.08S
MOUNT POCONO   CLOUDY     8   5  87 W3        29.93F
HAZLETON       CLOUDY     7  -4  61 MISG      29.99F
LEHIGHTON      FAIR       9   5  85 CALM      30.08F
WILKES BARRE   CLOUDY    11   5  77 E5        30.01F WCI   3

$$
DEZALL-MDZ008-012-015-019-020-151100-
DELAWARE AND EASTERN MARYLAND

CITY           SKY/WX    TMP DP  RH WIND       PRES   REMARKS
WILMINGTON     PTCLDY    24  11  57 CALM      30.13S
DOVER          CLOUDY    22  17  79 N5        30.12F WCI  16
GEORGETOWN     MOCLDY    27  14  58 NE3       30.12S
EASTON         PTCLDY    28   9  45 E5        30.16S WCI  23
PATUXENT       CLOUDY    30  14  51 E8        30.11F WCI  22
OCEAN CITY     MOCLDY    28  18  66 N6        30.12S WCI  22
WALLOPS ISLAND CLOUDY    29  16  58 N8        30.11S WCI  21
CAMBRIDGE      CLOUDY    28  10  47 N5        30.12F WCI  23
SALISBURY      CLOUDY    27  15  61 CALM      30.11F

$$
PAZ001-021-NYZ056-072-MDZ011-DCZ001-151100-
OTHER NEARBY LOCATIONS

CITY           SKY/WX    TMP DP  RH WIND       PRES   REMARKS
HARRISBURG     CLOUDY    20  11  68 E5        30.08F WCI  13
STATE COLLEGE  CLOUDY    10   6  82 CALM      30.00S
WILLIAMSPORT   PTCLDY    13   7  77 W3        30.06F
BINGHAMTON     CLOUDY     7   4  87 SW5       29.93F WCI  -2
NEW YORK CITY  CLEAR     20   8  60 VRB3      30.11S
BALTIMORE      MOCLDY    24  12  60 CALM      30.11F
WASHINGTON DC  CLOUDY    30  11  45 E7        30.12F WCI  23

$$




Office: OKX ASUS41 KOKX 151009 RWROKX REGIONAL WEATHER ROUNDUP NATIONAL WEATHER SERVICE NEW YORK NY 500 AM EST FRI DEC 15 2017 NOTE: "FAIR" INDICATES FEW OR NO CLOUDS BELOW 12,000 FEET WITH NO SIGNIFICANT WEATHER AND/OR OBSTRUCTIONS TO VISIBILITY. NYZ071-072-176-178-NJZ106-104-151100- NEW YORK CITY METRO AREA CITY SKY/WX TMP DP RH WIND PRES REMARKS Central Park CLEAR 20 8 60 VRB3 30.11S Bronx Bot Gard N/A 21 7 53 CALM 30.12R Bronx Lehman C NOT AVBL LaGuardia APRT MOCLDY 23 8 52 NW8 30.09F WCI 14 Queens College NOT AVBL Kennedy INTL MOCLDY 21 9 59 NW7 30.12R WCI 12 Breezy Point N/A N/A N/A N/A NW6 N/A Brooklyn Coll NOT AVBL Staten Island NOT AVBL Newark/Liberty MOCLDY 20 7 57 NW7 30.11S WCI 11 Teterboro PTCLDY 19 8 62 CALM 30.10S $$ NYZ177-179-078>081-151100- LONG ISLAND NEW YORK CITY SKY/WX TMP DP RH WIND PRES REMARKS Jones Beach N/A N/A N/A N/A N8 N/A Wantagh NOT AVBL Matinecock PT N/A N/A N/A N/A NW9 N/A Farmingdale CLEAR 19 8 62 NW3 30.09F MacArthur/ISP CLEAR 13 6 74 CALM 30.09S Shirley CLEAR 12 7 80 CALM 30.10S Mt Sinai Harb N/A N/A N/A N/A NW3 N/A Westhampton CLEAR 2 -3 80 E3 30.11F East Hampton FAIR 11 7 83 CALM 30.09S Southold NOT AVBL Montauk N/A 25 13 60 NW8 30.11R WCI 16 $$ NYZ052-065-067-151100- HUDSON VALLEY CITY SKY/WX TMP DP RH WIND PRES REMARKS White Plains CLEAR 16 6 65 NW6 30.05S WCI 7 Larchmont Harb N/A N/A N/A N/A W6 N/A Croton On Huds N/A N/A N/A N/A N1 N/A Somers NOT AVBL Brewster NOT AVBL Newburgh CLEAR 12 7 79 W5 30.06F WCI 4 Montgomery PTCLDY 11 4 73 S6 30.05F WCI 1 Otisville NOT AVBL Warwick NOT AVBL Suffern NOT AVBL Poughkeepsie CLOUDY 9 4 80 CALM 30.08F Albany CLOUDY 10 4 76 CALM 30.07S $$ NJZ001-105-106-008-010-013-015-019>022-104-151100- NEW JERSEY CITY SKY/WX TMP DP RH WIND PRES REMARKS Newark/Liberty MOCLDY 20 7 57 NW7 30.11S WCI 11 Teterboro PTCLDY 19 8 62 CALM 30.10S Caldwell CLOUDY 14 7 73 CALM 30.10S Somerville PTCLDY 8 6 92 CALM 30.10S Linden FAIR 20 6 55 CALM 30.11F Perth Amboy N/A N/A N/A N/A SW6 N/A Sussex CLOUDY 6 3 87 CALM 30.06F Andover NOT AVBL Trenton CLOUDY 18 10 71 S3 30.11R Millville CLOUDY 22 17 81 CALM 30.14R Atlantic City CLOUDY 23 12 62 CALM 30.13F Wrightstown CLOUDY 19 11 69 CALM 30.09F Toms River CLOUDY 18 12 77 CALM 30.13F Belmar CLOUDY 19 8 62 W3 30.12S $$ PAZ047>061-062-071-151100- EASTERN PENNSYLVANIA CITY SKY/WX TMP DP RH WIND PRES REMARKS Philadelphia CLOUDY 25 7 46 CALM 30.13F Allentown CLOUDY 13 4 67 CALM 30.08S Scranton CLOUDY 11 5 77 E5 30.01F WCI 3 $$ CTZ002-004>006-009-010-012-RIZ004-006-007-MAZ004-011-015-151100- SOUTHERN NEW ENGLAND IN CT CITY SKY/WX TMP DP RH WIND PRES REMARKS Bradley INTL CLOUDY 12 5 73 S5 30.08R WCI 4 Hartford CLOUDY 13 5 70 S3 30.10S Danbury CLOUDY 11 4 73 CALM 30.06F Wtrbury/Oxford CLOUDY 8 2 76 CALM 30.03F Norwalk Harbor N/A N/A N/A N/A NW5 N/A Bridgeport CLEAR 18 6 59 NW6 30.09F WCI 10 Meriden CLOUDY 6 4 91 CALM 30.09S New Haven PTCLDY 20 5 52 W5 30.09F WCI 13 Chester FAIR 12 3 67 CALM 30.06R Groton CLEAR 16 5 62 W6 30.09S WCI 7 Wilimantic CLOUDY 8 3 80 CALM 30.07S IN RI CITY SKY/WX TMP DP RH WIND PRES REMARKS Providence CLEAR 13 6 74 SW6 30.08S WCI 4 Block Island CLEAR 21 12 68 NW10 30.09R WCI 10 Westerly CLEAR 17 6 62 CALM 30.09R IN MA CITY SKY/WX TMP DP RH WIND PRES REMARKS Boston MOCLDY 19 7 59 W7 30.06S WCI 10 Worcester CLEAR 12 4 70 W10 29.97R WCI -1 Westfield PTCLDY 11 7 84 E3 30.06S Provincetown CLEAR 21 14 74 W13 30.06 WCI 9 Nantucket CLEAR 19 12 74 W7 30.07R WCI 10 $$ ANZ330-335-338-340-345-350-353-355-151100- COASTAL MARINE OBSERVATIONS STATION/POSITION TIME SKY/WX TEMP WIND PRES VSBY WAVE AIR SEA DIR/SP/G HT/PER (UTC) (F) (DEG/KT/KT) (MB) (MI) (FT/S) NY HARB ENTRANCE 0950 27 50 340/ 8/ 12 1019.0 2/ 8 20 S FIRE ISLAND 0950 28 51 350/ 8/ 12 1019.3 3/ 8 GREAT SOUTH BAY 0915 22 45 310/ 8/ 10 N/A HUDSON CANYON 0850 34 55 340/ 8/ 12 1018.8 5/ 6 KINGS POINT 0930 23 42 20/ 6/ 9 1020.2 EXECUTION ROCKS 0930 24 300/ 10/ 14 N/A WESTERN LI SOUND NOT AVBL CENTRAL LI SOUND 0930 25 310/ 10/ 14 N/A 3 ROBBINS REEF 0948 22 340/ 7/ 10 1019.9 $$ >>>>>>>>>>>>>>>>>>>>>>>>>>>> KEY <<<<<<<<<<<<<<<<<<<<<<<<<<< > < > SKY/WX - Sky Condition/Present Weather < > TMP - Temperature in Fahrenheit < > DP - Dew Point in Fahrenheit < > RH - Relative Humidity in Percent < > WIND - Direction (from) and Speed in MPH < > PRES - Mean Sea Level Pressure (inches of Hg) < > WCI - Wind Chill Index < > VSB - VISIBILITY IN MILES < > HX - HEAT INDEX < > TC - TEMPERATURE IN CELSIUS < > VRB - VARIABLE WIND DIRECTION < > < >>>>>>>>>>>>>>>>>>>>>>>>>>>> KEY <<<<<<<<<<<<<<<<<<<<<<<<<<<